Location: Fours
(44.3167°N, 6.7000°E)
Time: 03:49:34
(UTC+00:00)

Cosmos 1603 - Pass Details

Date: 30 November 2020
Orbit: 831 x 859 km, 71.0° (Epoch: 24 January)

Event Time Altitude Azimuth Distance (km) Brightness Sun altitude
Rises 17:58:31 0° 204° (SSW) 3,375 7.3 -21.4°
Reaches altitude 10° 18:00:57 10° 205° (SSW) 2,442 6.5 -21.8°
Maximum altitude 18:06:34 87° 295° (WNW) 840 3.6 -22.8°
Enters shadow 18:09:10 34° 23° (NNE) 1,357 4.5 -23.3°
